Location: Engle Ridge Observatory
(44.8122°N, 85.4398°W)
Time: 19:17:22
(UTC-05:00)

Daily predictions for brighter satellites

Satellite Brightness Start Highest point End
(mag) Time Altitude Azimuth Time Altitude Azimuth Time Altitude Azimuth
Cosmos 2154 Rocket 4.0 17:21:52 10° N 17:28:05 68° E 17:34:17 10° SSE
IRS-1A Rocket 4.2 17:22:52 10° SSE 17:28:20 74° ENE 17:33:52 10° NNW
Cosmos 1674 Rocket 3.6 17:24:17 10° S 17:28:45 88° E 17:33:15 10° N
IDEFIX/ARIANE 42P 3.0 17:27:36 10° SE 17:32:27 41° ENE 17:37:18 10° N
EO 1 Del DPAF 4.0 17:28:56 10° N 17:32:46 57° WNW 17:36:34 10° SSW
Iridium 2 3.9 17:29:28 10° N 17:33:17 76° W 17:37:04 10° S
BREEZE M DEB (TANK) 2.7 17:34:02 10° WNW 17:36:25 40° N 17:41:30 10° ENE
CZ-2C R/B 3.6 17:32:42 10° NNE 17:37:10 84° ESE 17:41:38 10° SSW
Okean 1 Rocket 3.0 17:33:14 10° N 17:37:37 79° E 17:41:56 10° SSE
Cosmos 1536 3.1 17:34:27 10° N 17:38:24 49° ENE 17:42:21 10° SSE
Cosmos 1461 3.2 17:38:57 10° NW 17:42:54 68° WSW 17:46:49 10° SSE
COSMO-SKYMED 1 4.2 17:40:25 10° NE 17:42:56 15° E 17:45:26 10° SE
Meteor 1-11 Rocket 3.9 17:41:11 10° NNW 17:46:47 81° W 17:52:17 10° S
Cosmos 1975 Rocket 3.3 17:45:27 10° SSE 17:49:34 45° E 17:53:42 10° NNE
Cosmos 1606 3.9 17:45:58 10° SSW 17:49:44 45° WNW 17:53:32 10° N
USA 234 3.4 17:43:18 10° NE 17:49:52 81° NW 17:56:24 10° WSW
Ariane Rocket 4.5 17:45:16 10° S 17:50:03 42° W 17:54:51 10° NNW
Cosmos 372 Rocket 4.3 17:45:14 10° S 17:50:15 49° ESE 17:55:19 10° NNE
MSX 4.1 17:46:05 10° SE 17:51:30 44° ENE 17:56:56 10° N
SMAP 3.1 17:48:03 10° SSE 17:52:38 60° ENE 17:57:14 10° N
AQUARIUS 4.2 17:48:55 10° SSE 17:53:20 61° ENE 17:57:47 10° N
Okean 3 3.4 17:49:57 10° S 17:54:13 75° E 17:58:30 10° NNE
SJ-12 3.9 17:50:37 10° SSE 17:54:39 67° ENE 17:58:45 10° N
Thor Agena Rocket 3.7 17:50:37 10° NNE 17:55:44 57° ESE 18:00:53 10° S
Cosmos 2263 Rocket 2.9 17:50:18 10° SW 17:55:46 53° WNW 18:01:19 10° NNE
NOSS 3-1 (A) 4.5 17:48:18 10° NW 17:55:50 71° WSW 18:04:06 10° SSE
CZ-3B DEB 3.0 17:55:26 10° S 17:58:50 31° ESE 18:05:05 12° ENE
Cosmos 1125 Rocket 3.5 17:54:05 10° SSW 17:59:23 85° ESE 18:04:45 10° NNE
CZ-4 R/B 1.5 17:56:46 10° SSE 18:00:57 86° WSW 18:05:09 10° NNW
Cosmos 1269 Rocket 4.3 17:56:02 10° NNW 18:01:22 75° WSW 18:06:39 10° SSE
USA 116 4.5 17:56:24 10° NNE 18:01:47 70° ESE 18:07:05 10° S
ATLAS 2AS CENTAUR R/B 3.1 18:00:03 10° NNW 18:08:06 59° NE 18:15:41 10° SE
SL-8 Rocket 3.9 18:02:35 10° N 18:08:45 64° E 18:14:50 10° SSE
Cosmos 1812 3.7 18:06:38 10° SSE 18:09:52 26° E 18:12:08 15° NE
Cosmos 2251 Rocket 3.8 18:06:20 10° N 18:11:29 44° ENE 18:16:34 10° SE
Cosmos 1633 4.0 18:09:20 10° NNW 18:12:43 39° W 18:16:05 10° SSW
YAOGAN 1 2.5 18:08:46 10° SSE 18:13:05 89° ESE 18:17:28 10° NNW
Abrixas 3.2 18:14:30 10° W 18:17:20 40° N 18:18:36 25° NE
Cosmos 2366 rocket 4.1 18:11:56 10° N 18:18:12 57° ENE 18:24:24 10° SSE
Cosmos 1975 3.7 18:15:01 10° NNE 18:18:35 28° ENE 18:22:05 10° SE
Cosmos 2218 Rocket 4.0 18:12:19 10° N 18:18:38 64° E 18:24:48 10° SSE
Cosmos 2181 Rocket 4.1 18:13:57 10° S 18:20:17 86° W 18:26:46 10° N
OTV 4 2.9 18:18:47 10° SW 18:20:54 18° S 18:23:01 10° SE
Cosmos 1844 Rocket 2.7 18:17:03 10° S 18:22:32 61° ESE 18:27:30 13° NNE
Cosmos 1959 Rocket 4.4 18:19:09 10° N 18:25:19 72° E 18:31:31 10° SSE
SL-27 R/B 2.4 18:24:57 10° NNW 18:28:37 66° ENE 18:32:14 10° SSE
Cosmos 1844 3.8 18:24:11 10° S 18:29:32 51° ESE 18:33:29 18° NE
Meteor 2-19 Rocket 4.4 18:24:42 10° N 18:30:48 84° E 18:36:52 10° S
SKYMED 2 3.8 18:27:57 15° NNE 18:31:22 45° E 18:35:32 10° S
GEOS 3 Rocket 3.5 18:26:42 10° SE 18:31:49 80° NE 18:36:58 10° NW
Cosmos 1455 Rocket 3.0 18:30:25 10° N 18:34:48 66° E 18:39:11 10° SSE
ISS -3.1 18:34:54 10° SW 18:38:07 55° SE 18:38:49 44° E
COSMOS 2406 4.2 18:39:04 10° NW 18:44:35 50° WSW 18:50:05 10° S
BREEZE-M R/B 4.4 18:35:09 10° SW 18:45:09 50° SSE 18:47:38 30° E
Cosmos 2278 Rocket 2.5 18:42:36 10° S 18:47:56 45° ESE 18:50:04 31° ENE
Cosmos 1809 Rocket 4.5 18:44:49 10° N 18:50:53 56° ENE 18:56:54 10° SSE
BREEZE-M DEB (TANK) 4.1 18:43:29 10° W 18:51:00 47° NNW 18:52:05 36° NE
Cosmos 1821 Rocket 4.5 18:48:24 10° N 18:53:55 34° ENE 18:54:31 33° E
Cosmos 1484 Rocket 3.0 18:52:31 10° S 18:56:17 67° WSW 19:00:01 10° NNW
CZ-2C R/B 4.2 18:52:14 10° SSW 18:56:42 34° W 19:01:20 10° NNW
Cosmos 375 4.4 18:55:27 10° NNW 19:00:06 60° NE 19:00:29 56° ENE
Cosmos 1238 Rocket 3.0 19:01:16 10° SSW 19:04:09 47° W 19:04:44 40° NW
Cosmos 2082 Rocket 2.6 19:05:50 10° NNW 19:10:49 42° NE 19:10:49 42° NE
Nadezhda 3 Rocket 3.9 19:09:47 10° S 19:15:54 67° E 19:21:20 14° NNE
Okean 1 3.5 19:12:48 10° SSW 19:16:51 70° W 19:17:54 46° NNW
Cosmos 1833 Rocket 3.3 19:14:03 10° NNW 19:18:13 37° NNE 19:18:13 37° NNE
COSMO-SKYMED 1 3.2 19:16:32 19° N 19:19:26 55° WNW 19:23:40 10° SSW
Meteor 2-21 4.4 19:16:28 10° N 19:22:42 86° W 19:28:51 10° S
Meteor 1-28 Rocket 4.1 19:29:51 46° SW 19:29:51 46° SW 19:32:40 10° SSW
USA 234 4.2 19:29:59 29° NNE 19:32:24 38° NNW 19:38:18 10° W
METEOR-M 4.2 19:33:34 10° S 19:38:54 74° WSW 19:44:16 10° NNW
Cosmos 1346 Rocket 4.4 19:36:28 10° SSW 19:38:33 29° SSW 19:38:33 29° SSW
NOSS 3-4 (A) 4.2 19:36:55 10° NNW 19:42:42 43° NNE 19:42:42 43° NNE
NOSS 3-4 (C) 4.2 19:37:01 10° NNW 19:42:47 43° NNE 19:42:47 43° NNE
NOSS 3-3 (A) 4.0 19:45:31 10° SW 19:51:45 83° NW 19:52:24 73° NNE
NOSS 3-3 (C) 4.0 19:45:37 10° SW 19:51:51 83° NW 19:52:28 74° NNE
ATLAS 2AS CENTAUR R/B 4.2 19:51:35 10° NW 19:58:52 39° WSW 20:05:44 10° S
FALCON 9 R/B 3.7 19:45:13 10° WSW 20:00:38 41° S 20:01:52 38° SSE
Timation 2 Rocket 4.4 20:05:24 10° NNW 20:12:08 66° WSW 20:13:13 58° SSW
ATLAS 3B CENTAUR R/B 4.4 20:12:19 10° WSW 20:20:53 22° SSW 20:22:04 21° S
Cosmos 2278 Rocket 3.7 20:27:10 10° WSW 20:31:58 31° WNW 20:31:58 31° WNW
CZ-3B DEB 3.6 20:27:57 10° W 20:33:36 56° NNW 20:34:11 55° N
Cosmos 2082 Rocket 4.3 20:50:13 10° NW 20:52:44 23° WNW 20:52:44 23° WNW
